Location: Unspecified
(54.1780°N, 0.0000°E)
Time: 09:15:10
(UTC+00:00)

S-56A Canister/Altair - Pass Details

Date: 19 June 2019
Orbit: 632 x 2500 km, 38.9° (Epoch: 16 July)

Event Time Altitude Azimuth Distance (km) Brightness Sun altitude
Rises 19:19:27 0° 245° (WSW) 3,866 11.7 8.2°
Reaches altitude 10° 19:23:32 10° 226° (SW) 2,581 10.5 7.7°
Maximum altitude 19:26:56 16° 190° (S) 1,968 9.5 7.3°
Drops below altitude 10° 19:29:52 10° 153° (SSE) 2,176 9.4 6.9°
Sets 19:32:52 0° 130° (SE) 2,971 9.9 6.5°
